Weather History for KMCB - September, 2011

Change the Weather History Date:

Sunday, September 18, 2011

  Actual Average Record
Temperature  
Mean Temperature 76 °F -  
Max Temperature 86 °F 87 °F 95 °F (1972)
Min Temperature 68 °F 65 °F 50 °F (1981)
Cooling Degree Days 11    
Growing Degree Days 26 (Base 50)    
Moisture  
Dew Point 71 °F    
Average Humidity 85    
Maximum Humidity 96    
Minimum Humidity 59    
Precipitation  
Precipitation 0.00 in - - ()
Sea Level Pressure  
Sea Level Pressure 30.08 in    
Wind  
Wind Speed 3 mph (SSE)    
Max Wind Speed 12 mph    
Max Gust Speed 18 mph    
Visibility 7 miles    
Events      
Averages and records for this station are not official NWS values.
T = Trace of Precipitation, MM = Missing Value Source: NWS Daily Summary

Daily Weather History Graph

Daily Weather History Graph

Search for Another Location

Airport or City:

Trip Planner

Search our weather history database for the weather conditions in past years. The results will help you decide how hot, cold, wet, or windy it might be!

Date:

Astronomy

Sep. 18, 2011 Rise Set
Actual Time 6:47 AM CDT 7:03 PM CDT
Civil Twilight 6:23 AM CDT 7:28 PM CDT
Nautical Twilight 5:55 AM CDT 7:56 PM CDT
Astronomical Twilight 5:26 AM CDT 8:25 PM CDT
Moon 10:45 PM CDT (9/18) 12:19 PM CDT (9/18)
Length of Visible Light 13h 04m
Length of Day
12h 16m
Waning Gibbous, 68% of the Moon is Illuminated
Sep 18
Waning Gibbous
Sep 20
Last Quarter
Sep 27
New
Oct 3
First Quarter
Oct 11
Full

Hourly Weather History & Observations

Time (CDT) Temp. Heat Index Dew Point Humidity Pressure Visibility Wind Dir Wind Speed Gust Speed Precip Events Conditions
1:53 AM 69.1 °F - 68.0 °F 96% 30.06 in 5.0 mi Calm Calm - N/A   Clear
2:53 AM 69.1 °F - 66.9 °F 93% 30.06 in 5.0 mi Calm Calm - N/A   Clear
3:53 AM 69.1 °F - 66.9 °F 93% 30.07 in 5.0 mi Calm Calm - N/A   Clear
5:53 AM 68.0 °F - 66.9 °F 96% 30.08 in 3.0 mi Calm Calm - N/A   Clear
6:32 AM 69.8 °F - 68.0 °F 94% 30.10 in 4.0 mi Calm Calm - N/A   Mostly Cloudy
7:53 AM 71.1 °F - 70.0 °F 96% 30.10 in 4.0 mi Calm Calm - N/A   Partly Cloudy
8:27 AM 73.4 °F - 71.6 °F 94% 30.12 in 4.0 mi ESE 4.6 mph - N/A   Partly Cloudy
8:41 AM 73.4 °F - 71.6 °F 94% 30.12 in 4.0 mi SSE 4.6 mph - N/A   Mostly Cloudy
8:53 AM 73.9 °F - 72.0 °F 93% 30.11 in 4.0 mi SSE 6.9 mph - N/A   Mostly Cloudy
9:39 AM 75.2 °F - 73.4 °F 94% 30.14 in 6.0 mi SSE 4.6 mph - N/A   Mostly Cloudy
9:53 AM 75.9 °F - 73.0 °F 91% 30.13 in 6.0 mi SSE 5.8 mph - N/A   Overcast
10:31 AM 78.8 °F - 73.4 °F 83% 30.14 in 9.0 mi SSE 9.2 mph - N/A   Mostly Cloudy
10:53 AM 80.1 °F 84.5 °F 73.9 °F 81% 30.12 in 9.0 mi SSE 9.2 mph - N/A   Mostly Cloudy
11:11 AM 80.6 °F 85.4 °F 73.4 °F 79% 30.14 in 10.0 mi South 9.2 mph - N/A   Mostly Cloudy
11:44 AM 82.4 °F 87.2 °F 71.6 °F 70% 30.13 in 10.0 mi South 11.5 mph - N/A   Mostly Cloudy
11:51 AM 82.4 °F 87.2 °F 71.6 °F 70% 30.13 in 10.0 mi SSE 8.1 mph - N/A   Mostly Cloudy
11:53 AM 82.9 °F 88.0 °F 72.0 °F 69% 30.11 in 10.0 mi South 9.2 mph - N/A   Mostly Cloudy
12:04 PM 82.4 °F 87.2 °F 71.6 °F 70% 30.12 in 10.0 mi South 11.5 mph 18.4 mph N/A   Scattered Clouds
12:53 PM 82.9 °F 88.0 °F 72.0 °F 69% 30.09 in 10.0 mi SSE 10.4 mph - N/A   Partly Cloudy
2:53 PM 84.9 °F 88.8 °F 69.1 °F 59% 30.05 in 10.0 mi South 4.6 mph - N/A   Clear
3:53 PM 82.9 °F 87.0 °F 70.0 °F 65% 30.05 in 10.0 mi SSW 3.5 mph - N/A   Partly Cloudy
4:53 PM 80.1 °F 83.8 °F 72.0 °F 76% 30.04 in 10.0 mi West 3.5 mph - N/A   Clear
5:53 PM 77.0 °F - 71.1 °F 82% 30.05 in 10.0 mi Calm Calm - 0.00 in   Scattered Clouds
6:53 PM 75.0 °F - 72.0 °F 90% 30.04 in 8.0 mi Calm Calm - N/A   Clear
7:53 PM 75.0 °F - 72.0 °F 90% 30.04 in 7.0 mi Calm Calm - N/A   Clear
8:53 PM 73.9 °F - 71.1 °F 91% 30.04 in 9.0 mi ESE 3.5 mph - N/A   Scattered Clouds
9:53 PM 73.0 °F - 71.1 °F 93% 30.03 in 6.0 mi SE 3.5 mph - N/A   Partly Cloudy
10:53 PM 73.0 °F - 71.1 °F 93% 30.02 in 8.0 mi Calm Calm - N/A   Clear
11:11 PM 73.4 °F - 71.6 °F 94% 30.04 in 5.0 mi SE 3.5 mph - N/A   Mostly Cloudy
11:36 PM 73.4 °F - 71.6 °F 94% 30.05 in 7.0 mi SE 3.5 mph - N/A   Overcast
11:53 PM 73.0 °F - 71.1 °F 93% 30.04 in 6.0 mi Calm Calm - N/A   Overcast